Flag for U.S.A. Weather past 2 weeks in San Buenaventura, California, U.S.A.

Now
65 °F

Overcast.


Feels Like: 65 °F
Forecast: 63 / 70 °F
Wind: 7 mph from West

Location: Oxnard Airport

Current Time: Jul 5, 2015 at 10:34:33 AM

Latest Report: Jul 5, 2015 at 9:51 AM


Visibility: 10 mi

Pressure: 29.98 "Hg

Humidity: 78%

Dew point: 58 °F

Location of San BuenaventuraLocation

Historic Weather in San Buenaventura — Graph

°F

San Buenaventura temperature yesterday

Maximum temperature yesterday: 69 °F (at 1:51 PM)
Minimum temperature yesterday: 62 °F (at 12:51 AM)
Average temperature yesterday: 66 °F

Past Weeks' High & Low Weather Summary

 TemperatureHumidityPressure
High77 °F (Jun 30, 2:51 PM)93% (Jun 26, 3:51 AM)30.03 "Hg (Jun 26, 3:51 AM)
Low58 °F (Jun 22, 5:51 AM)51% (Jun 23, 2:51 PM)29.80 "Hg (Jun 30, 7:51 PM)
Average66 °F76%29.91 "Hg
* Reported Jun 20 8:51 AM — Jul 5 8:51 AM, San Buenaventura, Weather by CustomWeather, © 2015

Note: Actual official high and low records may vary slightly from our data, if they occured in-between our weather recording intervals... More about our weather records

Advertising

San Buenaventura weather history for previous 24 hours

 ConditionsComfort  
Time TempWeatherWind HumidityBarometerVisibility
8:51 AM
Sun, Jul 5
64 °FOvercast.8 mph84%29.99 "Hg9 mi
7:51 AM63 °FLow clouds.9 mph87%29.98 "Hg7 mi
6:51 AM63 °FFog.8 mph87%29.97 "Hg4 mi
5:51 AM63 °FFog.7 mph87%29.95 "Hg3 mi
4:51 AM63 °FLow clouds.6 mph84%29.94 "Hg6 mi
3:51 AM64 °FLow clouds.7 mph81%29.93 "Hg10 mi
2:51 AM64 °FLow clouds.6 mph81%29.92 "Hg10 mi
1:51 AM64 °FLow clouds.7 mph81%29.93 "Hg10 mi
12:51 AM64 °FLow clouds.8 mph81%29.93 "Hg10 mi
11:51 PM
Sat, Jul 4
65 °FLow clouds.8 mph81%29.93 "Hg10 mi
10:51 PM65 °FLow clouds.6 mph81%29.93 "Hg10 mi
9:51 PM64 °FLow clouds.12 mph81%29.91 "Hg10 mi
8:51 PM65 °FLow clouds.12 mph81%29.89 "Hg10 mi
7:51 PM65 °FLow clouds.15 mph78%29.88 "Hg10 mi
6:51 PM66 °FLow clouds.14 mph78%29.87 "Hg10 mi
5:51 PM67 °FLow clouds.17 mph73%29.86 "Hg10 mi
4:51 PM67 °FOvercast.18 mph73%29.87 "Hg10 mi
3:51 PM68 °FOvercast.12 mph70%29.88 "Hg10 mi
2:51 PM68 °FOvercast.12 mph73%29.90 "Hg10 mi
1:51 PM69 °FOvercast.12 mph68%29.91 "Hg10 mi
12:51 PM68 °FOvercast.10 mph70%29.91 "Hg10 mi
11:51 AM68 °FOvercast.7 mph70%29.91 "Hg10 mi
10:51 AM66 °FOvercast.8 mph75%29.90 "Hg10 mi
Weather by CustomWeather, © 2015

See weather overviewHow to use our weather pages